IRIDIUM 75 [P]

Last updated on June 22, 2018, 12:20 a.m. UTC

1 25346U 98032E   18172.78429294  .01267429 -13862-5  89589-3 0  9995
2 25346  86.5589  69.3546 0380247 167.2987 193.8198 15.45989368 52688

Satellite is not in orbit.